Location: ???????????
(54.6970°N, 39.1477°E)
Time: 06:54:18
(UTC+00:00)

Cosmos 1833 - Pass Details

Date: 19 May 2025
Orbit: 831 x 867 km, 70.9° (Epoch: 23 June)

Event Time Altitude Azimuth Distance (km) Brightness Sun altitude
Exits shadow 22:42:13 15° 226° (SW) 2,145 5.8 -13.3°
Maximum altitude 22:46:59 67° 308° (NW) 937 4.5 -13.0°
Drops below altitude 10° 22:52:47 10° 31° (NNE) 2,522 8.1 -12.7°
Sets 22:55:17 0° 34° (NE) 3,464 9.2 -12.6°
